| time (UTC) | temp F | wind direction | speed MPH | gust MPH | rain 1hr in | rain 24hr in | rain mn in | humidity % | barometer mb |
| 20260906111803 | 70 | 0 | 0.0 | 0.0 | 0.00 | 0.26 | 0.00 | 99 | 1009.3 |
| 20260906110903 | 70 | 0 | 0.0 | 0.0 | 0.00 | 0.26 | 0.00 | 99 | 1009.2 |
| 20260906110003 | 70 | 0 | 0.0 | 0.0 | 0.00 | 0.26 | 0.00 | 99 | 1009.2 |
| 20260906105403 | 70 | 0 | 0.0 | 0.0 | 0.00 | 0.26 | 0.00 | 99 | 1009.1 |
| 20260906104503 | 70 | 0 | 0.0 | 0.0 | 0.00 | 0.26 | 0.00 | 99 | 1009.1 |
| 20260906103603 | 70 | 0 | 0.0 | 0.0 | 0.00 | 0.26 | 0.00 | 99 | 1009.1 |
| 20260906102703 | 70 | 334 | 0.0 | 1.0 | 0.00 | 0.26 | 0.00 | 99 | 1008.7 |
| 20260906101803 | 70 | 334 | 0.0 | 1.0 | 0.00 | 0.26 | 0.00 | 99 | 1008.7 |
| 20260906100903 | 70 | 334 | 0.0 | 1.0 | 0.00 | 0.26 | 0.00 | 99 | 1008.6 |
| 20260906100003 | 70 | 334 | 0.0 | 2.0 | 0.00 | 0.26 | 0.00 | 99 | 1008.6 |
| 20260906095403 | 70 | 337 | 0.0 | 3.0 | 0.00 | 0.26 | 0.00 | 99 | 1008.4 |
| 20260906094503 | 70 | 341 | 0.0 | 1.0 | 0.00 | 0.26 | 0.00 | 99 | 1008.4 |
| 20260906093603 | 70 | 0 | 0.0 | 0.0 | 0.00 | 0.26 | 0.00 | 99 | 1008.2 |
| 20260906092703 | 70 | 0 | 0.0 | 0.0 | 0.00 | 0.26 | 0.00 | 99 | 1008.2 |
| 20260906091803 | 70 | 0 | 0.0 | 0.0 | 0.00 | 0.26 | 0.00 | 99 | 1008.2 |
| 20260906090903 | 70 | 0 | 0.0 | 0.0 | 0.00 | 0.26 | 0.00 | 99 | 1008.1 |
| 20260906090003 | 70 | 0 | 0.0 | 0.0 | 0.00 | 0.26 | 0.00 | 99 | 1008.1 |
| 20260906085403 | 70 | 0 | 0.0 | 0.0 | 0.00 | 0.26 | 0.00 | 99 | 1008.2 |
| 20260906084503 | 70 | 0 | 0.0 | 0.0 | 0.00 | 0.26 | 0.00 | 99 | 1008.2 |
| 20260906083603 | 70 | 0 | 0.0 | 0.0 | 0.00 | 0.26 | 0.00 | 99 | 1008.1 |
| 20260906082703 | 70 | 0 | 0.0 | 0.0 | 0.00 | 0.26 | 0.00 | 99 | 1008.3 |
| 20260906081803 | 70 | 343 | 0.0 | 2.0 | 0.00 | 0.26 | 0.00 | 99 | 1008.3 |
| 20260906080903 | 70 | 345 | 1.0 | 2.0 | 0.00 | 0.26 | 0.00 | 99 | 1008.3 |
| 20260906080003 | 70 | 11 | 0.0 | 2.0 | 0.00 | 0.26 | 0.00 | 99 | 1008.3 |
| 20260906075403 | 70 | 0 | 0.0 | 0.0 | 0.00 | 0.26 | 0.00 | 99 | 1008.5 |
| 20260906074524 | 70 | 0 | 0.0 | 0.0 | 0.00 | 0.26 | 0.00 | 99 | 1008.5 |
| 20260906073603 | 70 | 0 | 0.0 | 0.0 | 0.00 | 0.26 | 0.00 | 99 | 1008.6 |
| 20260906072703 | 70 | 0 | 0.0 | 0.0 | 0.00 | 0.26 | 0.00 | 99 | 1008.7 |
| 20260906071803 | 70 | 0 | 0.0 | 0.0 | 0.00 | 0.26 | 0.00 | 99 | 1008.7 |
| 20260906070903 | 70 | 0 | 0.0 | 0.0 | 0.00 | 0.26 | 0.00 | 99 | 1008.7 |
| 20260906070003 | 71 | 0 | 0.0 | 0.0 | 0.00 | 0.26 | 0.00 | 99 | 1008.7 |
| 20260906065424 | 71 | 0 | 0.0 | 0.0 | 0.00 | 0.26 | 0.00 | 99 | 1009.0 |
| 20260906064503 | 71 | 0 | 0.0 | 0.0 | 0.00 | 0.26 | 0.00 | 99 | 1009.0 |
| 20260906063603 | 71 | 0 | 0.0 | 0.0 | 0.00 | 0.26 | 0.00 | 99 | 1009.1 |
| 20260906062703 | 71 | 0 | 0.0 | 0.0 | 0.00 | 0.26 | 0.00 | 99 | 1009.1 |
| 20260906061803 | 71 | 0 | 0.0 | 0.0 | 0.00 | 0.26 | 0.00 | 99 | 1009.1 |
| 20260906060903 | 71 | 0 | 0.0 | 0.0 | 0.00 | 0.26 | 0.00 | 98 | 1009.1 |
| 20260906060003 | 71 | 0 | 0.0 | 0.0 | 0.00 | 0.26 | 0.00 | 99 | 1009.1 |
| 20260906055403 | 71 | 0 | 0.0 | 0.0 | 0.00 | 0.26 | 0.00 | 99 | 1008.9 |
| 20260906054503 | 71 | 0 | 0.0 | 0.0 | 0.00 | 0.26 | 0.00 | 98 | 1008.9 |
| 20260906053603 | 71 | 0 | 0.0 | 0.0 | 0.00 | 0.26 | 0.00 | 98 | 1008.7 |
| 20260906052703 | 71 | 0 | 0.0 | 0.0 | 0.00 | 0.26 | 0.00 | 98 | 1009.1 |
| 20260906051803 | 71 | 0 | 0.0 | 0.0 | 0.00 | 0.26 | 0.00 | 98 | 1009.1 |
| 20260906050903 | 71 | 27 | 0.0 | 1.0 | 0.00 | 0.26 | 0.00 | 98 | 1009.2 |
| 20260906050003 | 71 | 27 | 0.0 | 2.0 | 0.00 | 0.26 | 0.00 | 98 | 1009.2 |
| 20260906045403 | 71 | 27 | 0.0 | 1.0 | 0.00 | 0.26 | 0.00 | 98 | 1009.6 |
| 20260906044503 | 71 | 27 | 0.0 | 2.0 | 0.00 | 0.26 | 0.00 | 98 | 1009.6 |
| 20260906043603 | 71 | 27 | 0.0 | 2.0 | 0.00 | 0.26 | 0.00 | 98 | 1009.8 |
| 20260906042703 | 71 | 0 | 0.0 | 0.0 | 0.00 | 0.26 | 0.00 | 98 | 1009.8 |
| 20260906041803 | 71 | 0 | 0.0 | 0.0 | 0.00 | 0.26 | 0.00 | 98 | 1009.8 |
| 20260906040924 | 71 | 0 | 0.0 | 0.0 | 0.00 | 0.26 | 0.00 | 98 | 1009.7 |
| 20260906040024 | 71 | 0 | 0.0 | 0.0 | 0.00 | 0.26 | 0.00 | 98 | 1009.7 |
| 20260906035403 | 72 | 0 | 0.0 | 0.0 | 0.00 | 0.26 | 0.26 | 98 | 1009.8 |
| 20260906034503 | 72 | 0 | 0.0 | 0.0 | 0.00 | 0.26 | 0.26 | 98 | 1009.8 |
| 20260906033603 | 72 | 0 | 0.0 | 0.0 | 0.00 | 0.26 | 0.26 | 98 | 1009.9 |
| 20260906032703 | 72 | 0 | 0.0 | 0.0 | 0.00 | 0.26 | 0.26 | 98 | 1009.9 |
| 20260906031801 | 72 | 0 | 0.0 | 0.0 | 0.00 | 0.26 | 0.26 | 97 | 1009.9 |
| 20260906030902 | 72 | 27 | 0.0 | 1.0 | 0.00 | 0.26 | 0.26 | 98 | 1010.2 |
| 20260906030002 | 72 | 27 | 1.0 | 3.0 | 0.00 | 0.26 | 0.26 | 98 | 1010.2 |
| 20260906025402 | 72 | 28 | 1.0 | 4.0 | 0.00 | 0.26 | 0.26 | 98 | 1010.2 |
| 20260906024502 | 72 | 24 | 2.0 | 5.0 | 0.00 | 0.26 | 0.26 | 98 | 1010.2 |
| 20260906023601 | 72 | 19 | 3.0 | 7.0 | 0.00 | 0.26 | 0.26 | 98 | 1009.9 |
| 20260906022702 | 73 | 13 | 1.0 | 4.0 | 0.00 | 0.26 | 0.26 | 98 | 1009.2 |
| 20260906021823 | 73 | 315 | 0.0 | 2.0 | 0.00 | 0.26 | 0.26 | 98 | 1009.2 |
| 20260906020902 | 73 | 315 | 0.0 | 2.0 | 0.00 | 0.26 | 0.26 | 98 | 1009.7 |
| 20260906020002 | 73 | 315 | 0.0 | 1.0 | 0.00 | 0.26 | 0.26 | 98 | 1009.7 |
| 20260906015402 | 72 | 315 | 0.0 | 1.0 | 0.00 | 0.26 | 0.26 | 98 | 1009.5 |
| 20260906014501 | 72 | 315 | 0.0 | 2.0 | 0.00 | 0.26 | 0.26 | 97 | 1009.5 |
| 20260906013602 | 72 | 315 | 1.0 | 2.0 | 0.00 | 0.26 | 0.26 | 97 | 1009.2 |
| 20260906012702 | 72 | 315 | 0.0 | 2.0 | 0.00 | 0.26 | 0.26 | 97 | 1009.2 |
| 20260906011802 | 72 | 315 | 0.0 | 1.0 | 0.00 | 0.26 | 0.26 | 97 | 1009.2 |
| 20260906010902 | 72 | 306 | 1.0 | 4.0 | 0.00 | 0.26 | 0.26 | 97 | 1009.2 |
| 20260906010002 | 72 | 337 | 2.0 | 6.0 | 0.00 | 0.26 | 0.26 | 97 | 1009.2 |
| 20260906005402 | 72 | 126 | 1.0 | 4.0 | 0.00 | 0.26 | 0.26 | 96 | 1008.8 |
| 20260906004523 | 72 | 168 | 2.0 | 4.0 | 0.00 | 0.26 | 0.26 | 96 | 1008.8 |
| 20260906003623 | 72 | 191 | 1.0 | 4.0 | 0.00 | 0.26 | 0.26 | 96 | 1009.1 |
| 20260906002702 | 72 | 203 | 2.0 | 5.0 | 0.00 | 0.26 | 0.26 | 96 | 1009.2 |
| 20260906001802 | 72 | 212 | 2.0 | 5.0 | 0.00 | 0.26 | 0.26 | 97 | 1009.2 |
| 20260906000902 | 72 | 188 | 2.0 | 9.0 | 0.00 | 0.26 | 0.26 | 96 | 1009.1 |
| 20260906000002 | 72 | 182 | 0.0 | 3.0 | 0.00 | 0.26 | 0.26 | 97 | 1009.1 |
| 20260905235402 | 72 | 182 | 1.0 | 3.0 | 0.01 | 0.26 | 0.26 | 96 | 1008.6 |
| 20260905234502 | 72 | 148 | 2.0 | 4.0 | 0.01 | 0.26 | 0.26 | 96 | 1008.6 |
| 20260905233623 | 72 | 254 | 1.0 | 3.0 | 0.01 | 0.26 | 0.26 | 97 | 1007.9 |
| 20260905232723 | 72 | 254 | 0.0 | 2.0 | 0.02 | 0.26 | 0.26 | 96 | 1008.7 |
| 20260905231802 | 72 | 247 | 1.0 | 3.0 | 0.12 | 0.26 | 0.26 | 96 | 1008.7 |
| 20260905230902 | 71 | 192 | 1.0 | 3.0 | 0.26 | 0.26 | 0.26 | 96 | 1009.7 |
| 20260905230002 | 71 | 102 | 2.0 | 4.0 | 0.26 | 0.26 | 0.26 | 95 | 1009.7 |
| 20260905225402 | 71 | 62 | 2.0 | 4.0 | 0.25 | 0.25 | 0.25 | 95 | 1009.7 |
| 20260905224523 | 71 | 5 | 2.0 | 5.0 | 0.25 | 0.25 | 0.25 | 94 | 1009.7 |
| 20260905223602 | 72 | 315 | 1.0 | 3.0 | 0.25 | 0.25 | 0.25 | 90 | 1009.2 |
| 20260905222702 | 74 | 326 | 3.0 | 13.0 | 0.24 | 0.24 | 0.24 | 86 | 1009.5 |
| 20260905221805 | 78 | 323 | 9.0 | 27.0 | 0.14 | 0.14 | 0.14 | 78 | 1009.5 |
| 20260905220023 | 93 | 195 | 0.0 | 1.0 | 0.00 | 0.00 | 0.00 | 72 | 1007.8 |
| 20260905215402 | 93 | 194 | 0.0 | 1.0 | 0.00 | 0.00 | 0.00 | 72 | 1006.1 |
| 20260905214502 | 93 | 181 | 1.0 | 2.0 | 0.00 | 0.00 | 0.00 | 70 | 1006.1 |
| 20260905213602 | 94 | 189 | 2.0 | 4.0 | 0.00 | 0.00 | 0.00 | 68 | 1006.9 |
| 20260905212702 | 95 | 204 | 2.0 | 4.0 | 0.00 | 0.00 | 0.00 | 66 | 1007.2 |
| 20260905211802 | 97 | 215 | 2.0 | 3.0 | 0.00 | 0.00 | 0.00 | 65 | 1007.2 |
| 20260905210923 | 98 | 205 | 3.0 | 5.0 | 0.00 | 0.00 | 0.00 | 62 | 1007.2 |
| 20260905210002 | 98 | 206 | 3.0 | 7.0 | 0.00 | 0.00 | 0.00 | 62 | 1007.2 |
| 20260905205402 | 98 | 198 | 2.0 | 6.0 | 0.00 | 0.00 | 0.00 | 63 | 1007.0 |
| 20260905204502 | 98 | 204 | 2.0 | 4.0 | 0.00 | 0.00 | 0.00 | 62 | 1007.0 |
| 20260905203602 | 98 | 204 | 3.0 | 6.0 | 0.00 | 0.00 | 0.00 | 62 | 1007.0 |
| 20260905202702 | 97 | 199 | 3.0 | 6.0 | 0.00 | 0.00 | 0.00 | 63 | 1006.9 |
| 20260905201802 | 97 | 196 | 2.0 | 5.0 | 0.00 | 0.00 | 0.00 | 64 | 1006.9 |
| 20260905200902 | 97 | 203 | 3.0 | 5.0 | 0.00 | 0.00 | 0.00 | 64 | 1007.3 |
| 20260905200002 | 97 | 192 | 2.0 | 5.0 | 0.00 | 0.00 | 0.00 | 64 | 1007.3 |
| 20260905195402 | 97 | 205 | 2.0 | 5.0 | 0.00 | 0.00 | 0.00 | 65 | 1007.3 |
| 20260905194502 | 97 | 197 | 3.0 | 8.0 | 0.00 | 0.00 | 0.00 | 64 | 1007.3 |
| 20260905193602 | 97 | 205 | 3.0 | 8.0 | 0.00 | 0.00 | 0.00 | 64 | 1007.3 |
| 20260905192702 | 97 | 202 | 3.0 | 8.0 | 0.00 | 0.00 | 0.00 | 64 | 1007.6 |
| 20260905191802 | 97 | 195 | 3.0 | 8.0 | 0.00 | 0.00 | 0.00 | 66 | 1007.6 |
| 20260905190902 | 97 | 195 | 3.0 | 8.0 | 0.00 | 0.00 | 0.00 | 63 | 1008.0 |
| 20260905190002 | 97 | 205 | 3.0 | 7.0 | 0.00 | 0.00 | 0.00 | 64 | 1008.0 |
| 20260905185423 | 97 | 206 | 3.0 | 7.0 | 0.00 | 0.00 | 0.00 | 66 | 1008.3 |
| 20260905184502 | 97 | 191 | 2.0 | 9.0 | 0.00 | 0.00 | 0.00 | 66 | 1008.3 |
| 20260905183602 | 97 | 192 | 2.0 | 5.0 | 0.00 | 0.00 | 0.00 | 66 | 1008.6 |
| 20260905182702 | 97 | 221 | 2.0 | 5.0 | 0.00 | 0.00 | 0.00 | 65 | 1008.8 |
| 20260905181802 | 96 | 207 | 3.0 | 6.0 | 0.00 | 0.00 | 0.00 | 64 | 1008.8 |
| 20260905180902 | 96 | 204 | 2.0 | 5.0 | 0.00 | 0.00 | 0.00 | 66 | 1009.2 |
| 20260905180023 | 96 | 197 | 3.0 | 8.0 | 0.00 | 0.00 | 0.00 | 68 | 1009.2 |
| 20260905175402 | 96 | 197 | 3.0 | 8.0 | 0.00 | 0.00 | 0.00 | 67 | 1009.5 |
| 20260905174502 | 96 | 196 | 3.0 | 6.0 | 0.00 | 0.00 | 0.00 | 69 | 1009.5 |
| 20260905173602 | 95 | 190 | 3.0 | 7.0 | 0.00 | 0.00 | 0.00 | 67 | 1009.6 |
| 20260905172702 | 95 | 212 | 3.0 | 7.0 | 0.00 | 0.00 | 0.00 | 71 | 1009.7 |
| 20260905171802 | 95 | 203 | 3.0 | 6.0 | 0.00 | 0.00 | 0.00 | 69 | 1009.7 |
| 20260905170902 | 94 | 201 | 3.0 | 9.0 | 0.00 | 0.00 | 0.00 | 70 | 1009.9 |
| 20260905170002 | 94 | 198 | 4.0 | 7.0 | 0.00 | 0.00 | 0.00 | 68 | 1009.9 |
| 20260905165402 | 94 | 199 | 4.0 | 7.0 | 0.00 | 0.00 | 0.00 | 71 | 1010.2 |
| 20260905164502 | 94 | 202 | 3.0 | 8.0 | 0.00 | 0.00 | 0.00 | 71 | 1010.2 |
| 20260905163623 | 94 | 200 | 3.0 | 6.0 | 0.00 | 0.00 | 0.00 | 72 | 1010.4 |
| 20260905162702 | 93 | 203 | 3.0 | 7.0 | 0.00 | 0.00 | 0.00 | 71 | 1010.7 |
| 20260905161823 | 93 | 198 | 3.0 | 5.0 | 0.00 | 0.00 | 0.00 | 71 | 1010.7 |
| 20260905160902 | 93 | 210 | 3.0 | 7.0 | 0.00 | 0.00 | 0.00 | 72 | 1010.7 |
| 20260905160023 | 93 | 205 | 2.0 | 7.0 | 0.00 | 0.00 | 0.00 | 72 | 1010.7 |
| 20260905155402 | 93 | 207 | 2.0 | 6.0 | 0.00 | 0.00 | 0.00 | 73 | 1010.9 |
| 20260905154523 | 92 | 205 | 2.0 | 5.0 | 0.00 | 0.00 | 0.00 | 74 | 1010.9 |
| 20260905153602 | 91 | 204 | 3.0 | 6.0 | 0.00 | 0.00 | 0.00 | 76 | 1011.1 |
| 20260905152723 | 91 | 211 | 3.0 | 7.0 | 0.00 | 0.00 | 0.00 | 75 | 1011.1 |
| 20260905151802 | 91 | 207 | 3.0 | 8.0 | 0.00 | 0.00 | 0.00 | 76 | 1011.1 |
| 20260905150923 | 90 | 215 | 3.0 | 7.0 | 0.00 | 0.00 | 0.00 | 77 | 1011.2 |
| 20260905150002 | 90 | 201 | 4.0 | 7.0 | 0.00 | 0.00 | 0.00 | 78 | 1011.2 |
| 20260905145402 | 89 | 206 | 3.0 | 7.0 | 0.00 | 0.00 | 0.00 | 79 | 1011.3 |
| 20260905144502 | 88 | 201 | 3.0 | 10.0 | 0.00 | 0.00 | 0.00 | 80 | 1011.3 |
| 20260905143602 | 88 | 202 | 4.0 | 7.0 | 0.00 | 0.00 | 0.00 | 81 | 1011.3 |
| 20260905142702 | 88 | 195 | 3.0 | 6.0 | 0.00 | 0.00 | 0.00 | 82 | 1011.3 |
| 20260905141802 | 87 | 204 | 3.0 | 6.0 | 0.00 | 0.00 | 0.00 | 83 | 1011.3 |
| 20260905140902 | 86 | 205 | 3.0 | 5.0 | 0.00 | 0.00 | 0.00 | 86 | 1011.4 |
| 20260905140002 | 85 | 198 | 3.0 | 7.0 | 0.00 | 0.00 | 0.00 | 87 | 1011.4 |
| 20260905135402 | 84 | 202 | 3.0 | 7.0 | 0.00 | 0.00 | 0.00 | 88 | 1011.3 |
| 20260905134502 | 83 | 215 | 2.0 | 7.0 | 0.00 | 0.00 | 0.00 | 90 | 1011.3 |
| 20260905133602 | 82 | 216 | 2.0 | 6.0 | 0.00 | 0.00 | 0.00 | 92 | 1011.6 |
| 20260905132702 | 81 | 216 | 2.0 | 7.0 | 0.00 | 0.00 | 0.00 | 93 | 1011.7 |
| 20260905131823 | 80 | 218 | 1.0 | 5.0 | 0.00 | 0.00 | 0.00 | 95 | 1011.7 |
| 20260905130902 | 80 | 230 | 2.0 | 4.0 | 0.00 | 0.00 | 0.00 | 96 | 1011.8 |
| 20260905130002 | 79 | 214 | 1.0 | 4.0 | 0.00 | 0.00 | 0.00 | 97 | 1011.8 |
| 20260905125402 | 79 | 219 | 2.0 | 7.0 | 0.00 | 0.00 | 0.00 | 98 | 1011.8 |
| 20260905124502 | 78 | 207 | 2.0 | 5.0 | 0.00 | 0.00 | 0.00 | 98 | 1011.8 |
| 20260905123602 | 78 | 210 | 2.0 | 4.0 | 0.00 | 0.00 | 0.00 | 99 | 1011.6 |
| 20260905122702 | 77 | 213 | 2.0 | 5.0 | 0.00 | 0.00 | 0.00 | 99 | 1011.4 |
| 20260905121802 | 77 | 208 | 2.0 | 7.0 | 0.00 | 0.00 | 0.00 | 99 | 1011.4 |
| 20260905120902 | 77 | 208 | 2.0 | 6.0 | 0.00 | 0.00 | 0.00 | 99 | 1011.3 |
| 20260905120002 | 77 | 210 | 2.0 | 5.0 | 0.00 | 0.00 | 0.00 | 99 | 1011.3 |
| 20260905115423 | 76 | 204 | 3.0 | 6.0 | 0.00 | 0.00 | 0.00 | 99 | 1011.3 |
| 20260905114502 | 76 | 200 | 2.0 | 4.0 | 0.00 | 0.00 | 0.00 | 99 | 1011.3 |
| 20260905113602 | 76 | 209 | 2.0 | 3.0 | 0.00 | 0.00 | 0.00 | 99 | 1011.2 |
| 20260905112702 | 76 | 200 | 1.0 | 3.0 | 0.00 | 0.00 | 0.00 | 99 | 1011.1 |